Regional Weather Roundup
Issued by NWS

Home | Current Version | Previous Version | Graphics & Text | Print | Product List | Glossary On
Versions: 1 2 3 4 5 6 7 8 9 10 11 12 13 14 15 16 17 18 19 20 21 22 23 24 25 26 27 28 29 30 31 32 33 34 35 36 37 38 39 40 41 42 43 44 45 46 47 48 49 50
000
ASUS45 KSLC 041410
RWRUT

UTAH REGIONAL WEATHER ROUNDUP
NATIONAL WEATHER SERVICE SALT LAKE CITY UT
800 AM MDT WED MAY 04 2016

UTZ001>011-023>025-041500-

NORTHERN UTAH

CITY           SKY/WX    TMP DP  RH WIND       PRES   REMARKS
BRIGHAM CITY   MOSUNNY   48  38  70 N6        30.16S
HILL AFB       MOSUNNY   52  34  50 E17       30.16S
LOGAN          SUNNY     47  40  76 CALM      30.18R
OGDEN          MOSUNNY   54  37  52 S6        30.15R
PROVO AIRPORT  MOSUNNY   48  34  57 CALM      30.19R
SALT LAKE CITY PTSUNNY   59  36  42 S8        30.15R
VERNAL         SUNNY     50  31  48 CALM      30.28R
WENDOVER       PTSUNNY   54  39  58 NE5       30.14R
HEBER CITY     MOSUNNY   43  34  70 CALM      30.25S

$$

UTZ012>022-026-027-041500-

SOUTHERN/CENTRAL UTAH

CITY           SKY/WX    TMP DP  RH WIND       PRES   REMARKS
BLANDING       SUNNY     54  32  42 E6        30.38R
BRYCE CANYON   MOSUNNY   36  30  79 W5        30.33R WCI  32
CEDAR CITY     SUNNY     50  35  56 NW6       30.17R
DELTA          PTSUNNY   50  39  66 CALM      30.18R
HANKSVILLE     MOSUNNY   50  36  57 CALM      30.24R
MILFORD        MOSUNNY   52  35  52 N5        30.16S
MOAB/CYNLANDS  SUNNY     56  37  49 SE7       30.22R
PRICE          MOSUNNY   54  28  36 CALM      30.26R
ST GEORGE      MOSUNNY   61  37  41 NW5       30.09R

$$

REGIONAL REPORTS     COLORADO/ARIZONA

CITY           SKY/WX    TMP DP  RH WIND       PRES   REMARKS
CRAIG, CO      SUNNY     42  34  73 CALM      30.32S
GRAND JUNCTION SUNNY     53  33  46 SE13      30.26R
RIFLE          SUNNY     46  33  60 CALM      30.32R
MONTROSE       SUNNY     49  30  48 SE3       30.33R
CORTEZ         SUNNY     44  33  65 CALM      30.32R
PAGE, AZ       SUNNY     58  33  39 VRB3      30.19R
GRAND CANYON   SUNNY     55  31  39 E5        30.25R
KINGMAN        SUNNY     65  37  35 E5        30.02S
FLAGSTAFF      SUNNY     45  34  65 CALM      30.28R

$$

REGIONAL REPORTS    NEVADA/IDAHO/WYOMING

CITY           SKY/WX    TMP DP  RH WIND       PRES   REMARKS
LAS VEGAS, NV  MOSUNNY   69  40  34 CALM      29.92S
ELY            PTSUNNY   42  34  73 CALM      30.20R
ELKO           PTSUNNY   49  37  63 NE5       30.12R
POCATELLO, ID  CLOUDY    48  41  76 N5        30.16R
BURLEY         MOSUNNY   45  38  76 CALM      30.10R
EVANSTON, WY   SUNNY     46  28  49 CALM      30.30R
ROCK SPRINGS   SUNNY     45  31  58 CALM      30.30R
KEMMERER         N/A     43  28  56 N8        30.32R

$$



USA.gov is the U.S. government's official web portal to all federal, state and local government web resources and services.